Location: Black Swamp Observatory
(41.3920°N, 84.1250°W)
Time: 22:07:57
(UTC-05:00)

A-11 Canister half - Visible Passes

Search period start: 27 January 2022 00:00
Search period end: 06 February 2022 00:00
Orbit: 1516 x 1684 km, 47.2° (Epoch: 27 January)

Date Brightness Start Highest point End Pass type
(mag) Time Alt. Az. Time Alt. Az. Time Alt. Az.
27 Jan 9.1 19:29:51 10° W 19:39:09 61° N 19:43:48 32° ENE visible
27 Jan 9.4 21:35:26 10° WNW 21:42:00 52° WNW 21:42:00 52° WNW visible
28 Jan 9.1 19:06:51 10° W 19:16:11 61° N 19:22:14 24° ENE visible
28 Jan 9.0 21:12:30 10° WNW 21:20:26 67° NW 21:20:26 67° NW visible
28 Jan 11.1 23:17:45 10° WNW 23:18:39 13° WNW 23:18:39 13° WNW visible
29 Jan 9.2 18:43:51 10° W 18:53:13 62° N 19:00:41 17° ENE visible
29 Jan 8.8 20:49:34 10° WNW 20:58:53 78° NNE 20:58:53 78° NNE visible
29 Jan 10.8 22:54:47 10° WNW 22:57:06 19° WNW 22:57:06 19° WNW visible
30 Jan 9.2 18:20:51 10° W 18:30:15 62° N 18:39:09 11° ENE visible
30 Jan 8.8 20:26:37 10° WNW 20:36:00 76° NNE 20:37:22 66° ENE visible
30 Jan 10.4 22:31:49 10° WNW 22:35:35 26° W 22:35:35 26° W visible
31 Jan 8.9 20:03:40 10° WNW 20:13:04 74° NNE 20:15:53 50° E visible
31 Jan 10.0 22:08:52 10° WNW 22:14:06 35° W 22:14:06 35° W visible
01 Feb 8.9 19:40:43 10° WNW 19:50:07 72° NNE 19:54:27 36° E visible
01 Feb 9.6 21:45:56 10° WNW 21:52:40 46° W 21:52:40 46° W visible
02 Feb 9.0 19:17:45 10° WNW 19:27:11 71° NNE 19:33:03 26° E visible
02 Feb 9.2 21:22:59 10° WNW 21:31:17 57° WSW 21:31:17 57° WSW visible
03 Feb 9.0 18:54:47 10° WNW 19:04:13 69° NNE 19:11:44 17° E visible
03 Feb 9.0 21:00:02 10° WNW 21:09:10 62° SW 21:09:58 60° SSW visible
03 Feb 11.0 23:06:57 10° W 23:08:11 13° W 23:08:11 13° W visible
04 Feb 9.1 18:31:49 10° WNW 18:41:17 68° NNE 18:50:29 10° E visible
04 Feb 9.1 20:37:05 10° WNW 20:46:18 65° SW 20:48:43 50° SSE visible
04 Feb 10.8 22:43:44 10° W 22:46:57 17° WSW 22:46:57 17° WSW visible
05 Feb 9.1 18:08:50 10° WNW 18:18:19 67° NNE 18:27:32 10° E visible
05 Feb 9.1 20:14:08 10° WNW 20:23:25 69° SW 20:27:33 37° SE visible
05 Feb 10.6 22:20:34 10° W 22:25:48 21° WSW 22:25:48 21° WSW visible
